JAL126 RJOO-RJTT

Flight info

Callsign JAL126
Flight time N/A
Altitude 27000
Route DCT ASUKA DCT SHTLE Y71 XAC XAC1A
Aircraft B77W/H-SDE1E2E3FGHIJ2J3J4J5M1RWXY/LB1D1

Departure

Time 2026-04-29 07:44
Airport Osaka Itami International Airport (RJOO)

Arrival

Time N/A
Airport Tokyo Haneda International Airport (RJTT)
Time Latitude Longitude Altitude Speed Heading
2026-04-29 06:56 34.79174 135.43852 55 ft 0 kts 31°
2026-04-29 07:32 34.79166 135.43846 49 ft 2 kts 32°
2026-04-29 07:32 34.79152 135.43836 49 ft 2 kts 31°
2026-04-29 07:33 34.79138 135.43826 47 ft 2 kts 31°
2026-04-29 07:33 34.79124 135.43815 47 ft 2 kts 31°
2026-04-29 07:33 34.79110 135.43805 47 ft 2 kts 31°
2026-04-29 07:33 34.79096 135.43795 49 ft 2 kts 31°
2026-04-29 07:34 34.79082 135.43784 47 ft 2 kts 36°
2026-04-29 07:34 34.79069 135.43771 47 ft 2 kts 51°
2026-04-29 07:34 34.79064 135.43754 47 ft 2 kts 97°
2026-04-29 07:34 34.79068 135.43735 47 ft 2 kts 126°
2026-04-29 07:35 34.79075 135.43725 47 ft 0 kts 134°
2026-04-29 07:35 34.79075 135.43724 47 ft 0 kts 134°
2026-04-29 07:36 34.79070 135.43730 47 ft 3 kts 134°
2026-04-29 07:37 34.79044 135.43763 48 ft 8 kts 134°
2026-04-29 07:37 34.78995 135.43822 49 ft 12 kts 135°
2026-04-29 07:37 34.78926 135.43906 51 ft 16 kts 135°
2026-04-29 07:37 34.78838 135.44011 48 ft 20 kts 135°
2026-04-29 07:38 34.78737 135.44136 49 ft 21 kts 135°
2026-04-29 07:38 34.78637 135.44252 49 ft 15 kts 139°
2026-04-29 07:38 34.78572 135.44326 47 ft 9 kts 155°
2026-04-29 07:38 34.78510 135.44335 52 ft 9 kts 180°
2026-04-29 07:39 34.78446 135.44334 54 ft 9 kts 181°
2026-04-29 07:39 34.78383 135.44335 52 ft 9 kts 178°
2026-04-29 07:39 34.78321 135.44336 51 ft 9 kts 180°
2026-04-29 07:39 34.78257 135.44335 51 ft 9 kts 180°
2026-04-29 07:40 34.78194 135.44336 49 ft 9 kts 171°
2026-04-29 07:40 34.78141 135.44377 48 ft 9 kts 134°
2026-04-29 07:40 34.78094 135.44435 49 ft 11 kts 135°
2026-04-29 07:40 34.78032 135.44511 47 ft 15 kts 135°
2026-04-29 07:41 34.77949 135.44611 49 ft 19 kts 135°
2026-04-29 07:41 34.77851 135.44729 48 ft 20 kts 135°
2026-04-29 07:41 34.77751 135.44850 49 ft 20 kts 136°
2026-04-29 07:41 34.77661 135.44928 51 ft 14 kts 153°
2026-04-29 07:42 34.77571 135.44980 47 ft 14 kts 155°
2026-04-29 07:42 34.77505 135.45015 51 ft 7 kts 163°
2026-04-29 07:42 34.77460 135.45013 50 ft 7 kts 199°
2026-04-29 07:42 34.77428 135.44975 49 ft 7 kts 232°
2026-04-29 07:43 34.77435 135.44926 51 ft 7 kts 313°
2026-04-29 07:43 34.77437 135.44923 51 ft 0 kts 314°
2026-04-29 07:43 34.77503 135.44843 52 ft 47 kts 315°
2026-04-29 07:43 34.77935 135.44317 48 ft 124 kts 314°
2026-04-29 07:44 34.78685 135.43412 97 ft 175 kts 319°
2026-04-29 07:44 34.79544 135.42382 900 ft 170 kts 318°
2026-04-29 07:44 34.80399 135.41383 1796 ft 172 kts 319°
2026-04-29 07:44 34.81136 135.40216 2273 ft 194 kts 290°
2026-04-29 07:45 34.81060 135.38412 2320 ft 236 kts 244°
2026-04-29 07:45 34.79948 135.36866 2911 ft 254 kts 214°
2026-04-29 07:45 34.78207 135.36268 3362 ft 274 kts 175°
2026-04-29 07:45 34.76328 135.36672 4316 ft 270 kts 172°
2026-04-29 07:46 34.74541 135.37247 5278 ft 273 kts 158°
2026-04-29 07:46 34.73012 135.38682 5991 ft 288 kts 131°
2026-04-29 07:46 34.72104 135.40929 6579 ft 306 kts 100°
2026-04-29 07:46 34.72092 135.43502 7303 ft 305 kts 82°
2026-04-29 07:47 34.72312 135.46085 8025 ft 313 kts 82°
2026-04-29 07:47 34.72545 135.48759 8804 ft 320 kts 83°
2026-04-29 07:47 34.72783 135.51452 9199 ft 324 kts 84°
2026-04-29 07:47 34.73022 135.54206 9064 ft 328 kts 83°
2026-04-29 07:48 34.73248 135.56907 9003 ft 322 kts 83°
2026-04-29 07:48 34.73464 135.59587 8936 ft 314 kts 84°
2026-04-29 07:48 34.73673 135.62239 8939 ft 310 kts 84°
2026-04-29 07:48 34.73875 135.64822 8947 ft 310 kts 84°
2026-04-29 07:49 34.74083 135.67441 8948 ft 312 kts 83°
2026-04-29 07:49 34.74294 135.70063 8919 ft 311 kts 84°
2026-04-29 07:49 34.74500 135.72682 8937 ft 310 kts 84°
2026-04-29 07:49 34.74702 135.75304 8943 ft 310 kts 84°
2026-04-29 07:50 34.74898 135.77888 8945 ft 311 kts 84°
2026-04-29 07:50 34.75075 135.80500 8932 ft 309 kts 87°
2026-04-29 07:50 34.75141 135.83113 8948 ft 309 kts 88°
2026-04-29 07:50 34.75231 135.85727 8933 ft 309 kts 86°
2026-04-29 07:51 34.75388 135.88330 8959 ft 307 kts 84°
2026-04-29 07:51 34.75591 135.90919 8950 ft 307 kts 83°
2026-04-29 07:51 34.75818 135.93483 8928 ft 307 kts 83°
2026-04-29 07:51 34.76062 135.96041 8958 ft 309 kts 83°
2026-04-29 07:52 34.76324 135.98671 8963 ft 314 kts 82°
2026-04-29 07:52 34.76589 136.01320 8950 ft 316 kts 82°
2026-04-29 07:52 34.76820 136.03971 8943 ft 312 kts 90°
2026-04-29 07:52 34.76403 136.06508 8958 ft 306 kts 119°
2026-04-29 07:53 34.75187 136.08564 8941 ft 300 kts 145°
2026-04-29 07:53 34.73442 136.09836 8957 ft 287 kts 169°
2026-04-29 07:53 34.71525 136.10185 8942 ft 272 kts 192°
2026-04-29 07:53 34.69744 136.09678 8958 ft 257 kts 212°
2026-04-29 07:54 34.68289 136.08506 8940 ft 247 kts 229°
2026-04-29 07:54 34.67194 136.06962 8938 ft 241 kts 239°
2026-04-29 07:54 34.66452 136.05184 8946 ft 232 kts 258°
2026-04-29 07:54 34.66172 136.03226 8939 ft 238 kts 263°
2026-04-29 07:55 34.65982 136.01221 8946 ft 238 kts 263°
2026-04-29 07:55 34.65795 135.99246 8936 ft 237 kts 263°
2026-04-29 07:55 34.65600 135.97259 8939 ft 236 kts 263°
2026-04-29 07:55 34.65398 135.95285 8943 ft 234 kts 263°
2026-04-29 07:56 34.65241 135.93328 8943 ft 232 kts 265°
2026-04-29 07:56 34.64961 135.91291 8399 ft 255 kts 258°
2026-04-29 07:56 34.64558 135.89226 7886 ft 254 kts 258°
2026-04-29 07:56 34.64162 135.87154 7332 ft 250 kts 258°
2026-04-29 07:57 34.63790 135.85133 6958 ft 239 kts 258°
2026-04-29 07:57 34.63440 135.83201 6590 ft 229 kts 259°
2026-04-29 07:57 34.63117 135.81366 6472 ft 211 kts 260°
2026-04-29 07:57 34.62822 135.79674 6447 ft 201 kts 261°
2026-04-29 07:58 34.62522 135.77918 6181 ft 223 kts 261°
2026-04-29 07:58 34.62208 135.76030 5881 ft 231 kts 259°
2026-04-29 07:58 34.61893 135.74113 5577 ft 232 kts 259°
2026-04-29 07:58 34.61575 135.72206 5248 ft 227 kts 259°
2026-04-29 07:59 34.61269 135.70412 5146 ft 212 kts 258°
2026-04-29 07:59 34.60955 135.68659 5035 ft 214 kts 259°
2026-04-29 07:59 34.60652 135.66834 4837 ft 228 kts 266°
2026-04-29 07:59 34.60945 135.64950 4522 ft 230 kts 300°
2026-04-29 08:00 34.61987 135.63480 4234 ft 235 kts 314°
2026-04-29 08:00 34.63171 135.62113 3872 ft 231 kts 313°
2026-04-29 08:00 34.64290 135.60761 3556 ft 223 kts 313°
2026-04-29 08:00 34.65379 135.59445 3258 ft 218 kts 313°
2026-04-29 08:01 34.66421 135.58194 3027 ft 206 kts 314°
2026-04-29 08:01 34.67423 135.56993 2718 ft 198 kts 315°
2026-04-29 08:01 34.68377 135.55841 2445 ft 190 kts 315°
2026-04-29 08:01 34.69287 135.54738 2203 ft 177 kts 315°
2026-04-29 08:02 34.70119 135.53731 1990 ft 166 kts 315°
2026-04-29 08:02 34.70946 135.52730 1760 ft 168 kts 315°
2026-04-29 08:02 34.71767 135.51746 1530 ft 160 kts 316°
2026-04-29 08:02 34.72531 135.50823 1321 ft 147 kts 316°
2026-04-29 08:03 34.73243 135.49955 1143 ft 143 kts 315°
2026-04-29 08:03 34.73939 135.49113 917 ft 141 kts 313°
2026-04-29 08:03 34.74626 135.48232 739 ft 144 kts 313°
2026-04-29 08:03 34.75339 135.47377 571 ft 144 kts 311°
2026-04-29 08:04 34.76027 135.46520 401 ft 145 kts 308°
2026-04-29 08:04 34.76715 135.45637 296 ft 141 kts 325°
2026-04-29 08:04 34.77419 135.44808 477 ft 142 kts 319°
2026-04-29 08:04 34.78088 135.43904 824 ft 144 kts 318°
2026-04-29 08:05 34.78729 135.42984 1269 ft 143 kts 319°
2026-04-29 08:05 34.79434 135.42034 1444 ft 161 kts 320°
2026-04-29 08:05 34.80239 135.40953 1615 ft 187 kts 307°
2026-04-29 08:05 34.80518 135.39296 1765 ft 218 kts 272°
2026-04-29 08:06 34.80106 135.37423 2047 ft 238 kts 248°
2026-04-29 08:06 34.79038 135.35851 2570 ft 247 kts 221°
2026-04-29 08:06 34.77464 135.35109 3342 ft 241 kts 187°
2026-04-29 08:06 34.75808 135.35417 3998 ft 245 kts 162°
2026-04-29 08:07 34.74393 135.36532 4607 ft 244 kts 143°
2026-04-29 08:07 34.73149 135.37913 5013 ft 245 kts 141°
2026-04-29 08:07 34.71870 135.39347 4989 ft 251 kts 145°
2026-04-29 08:07 34.70308 135.40255 5009 ft 251 kts 170°
2026-04-29 08:08 34.68587 135.40559 5010 ft 249 kts 179°
2026-04-29 08:08 34.66863 135.40704 4999 ft 247 kts 181°
2026-04-29 08:08 34.65154 135.40827 4990 ft 244 kts 181°
2026-04-29 08:08 34.63462 135.40949 5006 ft 244 kts 181°
2026-04-29 08:09 34.61754 135.41077 5016 ft 247 kts 181°
2026-04-29 08:09 34.60018 135.41213 5020 ft 252 kts 180°
2026-04-29 08:09 34.58278 135.41354 5019 ft 249 kts 180°
2026-04-29 08:09 34.57134 135.41448 5001 ft 247 kts 180°
2026-04-29 08:10 34.54884 135.41636 4998 ft 242 kts 180°
2026-04-29 08:10 34.53746 135.41730 4997 ft 243 kts 180°
2026-04-29 08:10 34.51491 135.41917 5018 ft 247 kts 180°
2026-04-29 08:10 34.50328 135.42017 5014 ft 249 kts 180°
2026-04-29 08:11 34.48613 135.42169 5009 ft 249 kts 177°
2026-04-29 08:11 34.47010 135.42898 4999 ft 250 kts 140°
2026-04-29 08:11 34.46102 135.44647 5008 ft 249 kts 102°
2026-04-29 08:11 34.46144 135.46734 5065 ft 251 kts 73°
2026-04-29 08:12 34.46817 135.48689 5028 ft 251 kts 53°
2026-04-29 08:12 34.47933 135.50263 5040 ft 244 kts 42°
2026-04-29 08:12 34.49152 135.51694 5038 ft 243 kts 41°
2026-04-29 08:12 34.50361 135.53101 5037 ft 243 kts 41°
2026-04-29 08:13 34.51576 135.54533 5040 ft 243 kts 41°
2026-04-29 08:13 34.52766 135.55954 5024 ft 236 kts 40°
2026-04-29 08:13 34.53912 135.57330 5000 ft 230 kts 41°
2026-04-29 08:13 34.55040 135.58702 5002 ft 229 kts 42°
2026-04-29 08:14 34.56170 135.60083 4996 ft 231 kts 42°
2026-04-29 08:14 34.57304 135.61467 5000 ft 233 kts 42°
2026-04-29 08:14 34.58464 135.62882 4916 ft 238 kts 42°
2026-04-29 08:14 34.59778 135.64039 4644 ft 230 kts 12°
2026-04-29 08:15 34.61248 135.63978 4427 ft 207 kts 333°
2026-04-29 08:15 34.62373 135.62986 4118 ft 195 kts 316°
2026-04-29 08:15 34.63334 135.61906 3849 ft 179 kts 315°
2026-04-29 08:15 34.64191 135.60893 3602 ft 169 kts 315°
2026-04-29 08:16 34.65014 135.59905 3398 ft 164 kts 316°
2026-04-29 08:16 34.65827 135.58922 3191 ft 165 kts 316°
2026-04-29 08:16 34.66647 135.57931 2960 ft 167 kts 317°
2026-04-29 08:16 34.67474 135.56932 2739 ft 171 kts 317°
2026-04-29 08:17 34.68321 135.55914 2525 ft 171 kts 318°
2026-04-29 08:17 34.69168 135.54894 2275 ft 168 kts 317°
2026-04-29 08:17 34.69953 135.53946 2050 ft 150 kts 318°
2026-04-29 08:17 34.70670 135.53082 1870 ft 141 kts 319°
2026-04-29 08:18 34.71372 135.52234 1651 ft 142 kts 319°
2026-04-29 08:18 34.72060 135.51403 1472 ft 141 kts 321°
2026-04-29 08:18 34.72761 135.50553 1286 ft 142 kts 315°
2026-04-29 08:18 34.73450 135.49684 1086 ft 142 kts 324°
2026-04-29 08:19 34.74170 135.48881 884 ft 140 kts 317°
2026-04-29 08:19 34.74829 135.48017 731 ft 137 kts 314°
2026-04-29 08:19 34.75467 135.47185 545 ft 137 kts 323°
2026-04-29 08:19 34.76178 135.46397 337 ft 138 kts 314°
2026-04-29 08:20 34.76851 135.45595 204 ft 133 kts 318°
2026-04-29 08:20 34.77515 135.44818 52 ft 127 kts 317°
2026-04-29 08:20 34.77948 135.44302 49 ft 39 kts 315°
2026-04-29 08:20 34.78115 135.44111 51 ft 30 kts 322°
2026-04-29 08:21 34.78276 135.44006 51 ft 16 kts 343°
2026-04-29 08:21 34.78382 135.43997 52 ft 16 kts
2026-04-29 08:21 34.78483 135.44043 52 ft 16 kts 33°
2026-04-29 08:21 34.78564 135.44130 50 ft 12 kts 44°
2026-04-29 08:22 34.78617 135.44195 47 ft 8 kts 42°
2026-04-29 08:22 34.78628 135.44254 47 ft 8 kts 114°
2026-04-29 08:22 34.78593 135.44305 50 ft 8 kts 133°
2026-04-29 08:22 34.78583 135.44358 47 ft 7 kts 56°
2026-04-29 08:23 34.78616 135.44398 47 ft 7 kts 43°
2026-04-29 08:23 34.78649 135.44439 48 ft 7 kts 45°
2026-04-29 08:23 34.78685 135.44478 47 ft 7 kts 43°
2026-04-29 08:23 34.78716 135.44495 48 ft 5 kts
2026-04-29 08:24 34.78748 135.44501 51 ft 5 kts
2026-04-29 08:24 34.78779 135.44507 51 ft 5 kts
2026-04-29 08:24 34.78798 135.44510 52 ft 0 kts